CAPE
3 2 4 0 0 0 0 0 0 0 0 0 0 0 0 0 1 3 1 2 2 3 0 3 1 0 0 10 0 200 369 359 0 0 0 0 0 0 0 0 0 0 0 0 0 0 2
10 4 0 6 0 0 0 0 0 0 0 0 0 0 0 0 0 0 0 2 0 3 2 0 2 1 0 0 0 25 69 2 0 0 0 0 0 0 1 1 0 0 0 0 0 11 45
24 26 4 0 5 0 0 0 0 0 0 0 0 0 0 0 0 2 3 0 1 3 1 0 0 0 0 0 0 125 109 43 18 0 2 0 0 0 5 7 0 0 0 0 0 3 47
35 32 26 0 0 0 0 0 0 0 0 0 0 0 0 0 0 0 1 0 2 3 0 0 0 0 0 0 0 30 176 147 72 39 6 12 1 0 2 0 0 0 0 0 1 44 58
29 37 39 8 0 5 0 0 0 0 0 0 0 0 0 0 0 0 0 0 0 0 0 0 0 3 36 0 0 12 63 87 48 32 12 0 3 8 4 0 0 0 1 2 24 42 17
29 32 38 34 0 0 3 0 0 0 0 0 0 0 0 0 0 0 0 0 0 0 0 0 0 122 234 4 2 57 37 23 132 93 91 13 19 46 16 0 0 0 2 10 8 0 0
24 20 38 38 27 0 4 0 0 0 0 0 0 0 0 0 0 0 0 0 0 0 0 0 3 1 2 27 13 27 0 14 139 183 241 103 20 16 0 1 0 0 0 1 3 0 0
29 32 36 48 51 14 0 6 0 0 0 0 0 0 0 0 0 0 0 0 0 0 4 0 0 0 7 6 45 23 0 58 80 139 47 39 9 0 0 1 0 0 9 2 6 0 2
23 25 33 48 52 46 0 12 0 0 0 0 0 0 0 0 0 2 0 0 0 0 130 0 0 0 9 9 48 62 8 60 95 24 66 43 45 21 10 14 1 3 4 10 66 6 0
29 25 29 43 50 54 4 0 0 0 0 0 0 0 0 0 0 0 0 0 0 0 129 0 0 0 0 7 56 39 10 48 38 2 1 19 34 77 39 22 4 40 61 54 56 63 51
39 35 34 40 43 40 0 0 19 0 0 0 0 0 0 0 0 0 0 0 0 292 93 0 0 0 0 2 2 11 0 8 39 2 18 123 103 85 70 129 98 29 54 105 84 67 20
58 41 43 45 44 45 7 0 11 0 0 0 0 0 0 4 0 0 0 0 80 318 81 0 0 0 1 2 0 10 0 1 65 25 0 3 130 155 97 97 75 128 149 138 101 87 181
61 65 55 63 55 50 11 0 1 0 0 0 0 0 2 0 0 0 0 602 165 45 1 0 0 0 0 8 1 1 0 1 22 34 101 142 137 151 137 156 153 146 199 277 183 158 167
29 62 67 72 64 57 27 0 0 0 0 0 0 0 1 0 0 81 201 393 36 0 12 0 0 0 0 5 0 0 0 10 3 53 90 136 204 138 139 204 179 168 141 187 40 50 69
28 84 74 78 80 70 38 0 4 0 0 0 0 13 10 0 0 17 211 147 3 5 2 0 0 0 0 2 2 0 3 17 21 60 25 204 40 56 44 91 64 144 40 114 87 168 26
29 49 91 78 85 75 45 0 0 4 0 0 5 16 0 0 0 7 196 29 11 6 0 0 0 0 3 6 0 1 13 16 74 87 156 130 138 36 5 27 39 58 59 39 6 0 0
62 34 118 95 76 90 61 15 0 2 0 0 44 20 40 3 1 51 134 27 9 0 0 0 0 0 1 1 1 0 17 75 86 107 174 108 88 113 0 8 30 100 22 2 9 13 0
88 42 130 122 112 101 63 15 0 1 0 0 115 33 165 263 0 35 102 47 8 14 24 0 0 0 10 36 31 8 7 48 65 85 85 138 99 62 34 4 1 6 35 42 8 0 0
21 31 80 128 139 107 65 23 0 1 0 40 125 204 273 39 11 269 63 63 34 8 71 0 0 0 0 43 31 1 0 70 40 133 47 139 0 2 33 38 5 1 0 0 0 0 0
32 68 73 108 117 136 90 3 0 1 0 129 210 272 93 187 6 163 154 57 14 30 33 0 0 0 0 0 1 20 4 9 0 13 0 8 0 1 38 45 53 64 0 0 0 4 0
99 113 141 169 154 161 85 18 3 2 0 79 248 130 31 110 125 108 203 48 16 14 52 68 32 42 20 59 32 160 140 12 0 0 0 29 65 1 0 1 0 0 0 0 0 0 14
76 159 164 166 165 150 90 76 10 4 0 32 306 210 158 21 118 252 138 116 23 60 117 120 0 74 112 171 236 189 281 126 44 5 35 0 40 0 0 0 0 0 0 0 0 0 0
125 172 180 201 146 127 100 57 30 20 4 23 447 364 581 281 439 186 154 81 41 258 231 208 63 89 246 316 430 395 280 163 137 190 151 82 18 0 0 0 0 0 0 0 0 0 0
94 189 221 191 132 71 81 19 5 16 24 148 600 542 788 551 653 66 138 100 91 306 291 371 360 355 225 67 54 45 7 1 2 2 74 36 16 0 0 0 0 0 0 0 0 0 0
95 205 178 151 81 40 28 38 28 1 0 13 562 666 577 856 392 105 161 139 119 353 358 363 93 191 108 152 125 23 39 0 0 0 0 0 0 0 0 0 0 0 0 0 0 0 0
148 122 103 33 34 39 5 0 13 0 1 10 39 895 812 1001 566 77 100 121 383 543 394 0 4 0 0 296 349 144 76 4 10 0 0 0 0 0 0 0 0 0 0 0 0 0 0
76 67 60 45 19 25 9 1 0 0 2 8 394 713 626 479 109 172 89 159 174 411 481 22 0 3 0 469 1276 456 248 18 17 20 0 0 0 0 0 15 0 0 0 0 0 0 0
29 20 24 41 22 1 0 0 0 1 1 2 759 813 1052 756 359 444 141 135 431 392 630 185 106 43 100 321 828 398 650 10 0 0 0 0 13 0 2 1 0 0 0 0 0 0 0
11 21 10 0 0 0 0 0 0 1 2 0 864 500 901 811 402 272 111 66 153 319 520 177 412 291 356 443 681 529 559 0 150 6 0 0 7 0 0 2 0 0 0 0 0 0 0
CIN
0 0 0 0 0 0 0 0 0 0 0 0 0 0 0 0 0 0 0 -1 0 0 0 -1 -1 0 0 -352 0 -215 -565 -599 0 0 0 0 0 0 0 0 0 0 0 0 0 0 -18
-1 0 0 -6 0 0 0 0 0 0 0 0 0 0 0 0 0 0 0 -1 0 -1 -1 0 0 0 0 0 0 -116 -181 -92 0 0 0 0 0 0 -54 -42 0 0 0 0 0 -2 0
0 0 0 0 -38 0 0 0 0 0 0 0 0 0 0 0 0 0 0 0 0 -2 0 0 0 0 0 0 0 -108 -153 -135 -127 0 -121 -8 0 0 -62 -23 0 0 0 0 0 -4 -2
0 0 0 0 0 0 0 0 0 0 0 0 0 0 0 0 0 0 0 0 -2 -1 0 0 0 0 -10 0 0 -157 -91 -76 -102 -96 -113 -95 -53 0 -56 0 0 0 0 0 -2 -4 -4
0 0 0 -2 0 0 0 0 0 0 0 0 0 0 0 0 0 0 0 0 0 0 0 0 0 -265 -166 0 0 -112 -95 -73 -99 -93 -100 0 -81 -68 -37 -18 0 0 -1 -1 0 0 -3
0 0 0 0 0 0 0 0 0 0 0 0 0 0 0 0 0 0 0 0 0 0 0 0 0 -218 -114 -106 -45 -78 -89 -103 -44 -73 -94 -113 -77 -31 -10 0 0 0 -1 0 0 0 0
0 0 0 0 -1 0 0 0 0 0 0 0 0 0 0 0 0 0 0 0 0 0 0 0 -59 -73 -139 -91 -111 -65 -6 -81 -40 -27 -3 -30 -13 -2 0 -1 0 0 0 0 -1 0 0
0 0 0 0 0 -1 0 0 0 0 0 0 0 0 0 0 0 0 0 0 0 0 -26 0 0 0 -179 -165 -78 -58 0 -13 -20 -2 -4 -7 -5 0 -1 -1 0 0 -2 -19 -6 0 0
0 0 0 0 0 0 0 0 0 0 0 0 0 0 0 0 0 0 0 0 0 0 -30 0 0 0 -123 -124 -46 -9 -40 -2 -9 -12 0 -21 -6 -17 -9 -2 -1 -1 -8 -3 -1 -10 0
0 -1 0 0 0 0 0 0 0 0 0 0 0 0 0 0 0 0 0 0 0 0 -2 0 0 0 0 -90 -44 -25 -45 -2 -7 -28 -1 -10 -22 -2 -2 -3 -4 -7 -10 -2 -1 -5 0
0 0 0 0 0 -1 0 0 -2 0 0 0 0 0 0 0 0 0 0 0 0 -36 0 0 0 0 0 -74 -29 -72 -8 -4 -16 -1 -14 -2 -5 -1 -1 -2 -13 0 -17 -1 0 0 -5
0 0 0 0 -1 -1 -3 0 -2 0 0 0 0 0 0 0 0 0 0 0 -21 0 0 0 0 0 -11 -43 0 -10 -2 -13 -4 -2 0 -82 -14 -3 -7 -29 -20 -26 -11 -3 -1 0 0
0 0 0 0 0 -1 -5 0 -1 0 0 0 0 0 0 0 0 0 0 -2 -9 0 -1 0 0 0 0 -14 -34 -8 0 -1 -1 0 0 0 0 -14 -17 -4 -14 -9 0 0 0 0 0
0 0 0 0 0 0 -4 0 0 0 0 0 0 0 0 0 0 -24 -52 -1 0 0 0 0 0 0 0 -1 0 0 0 0 -3 -2 -1 0 0 -5 -10 -2 -1 0 0 0 0 0 0
-1 0 0 0 0 0 -2 0 -2 -2 0 0 0 0 0 0 0 -51 -51 -46 0 0 0 0 0 0 0 0 -3 0 -13 -2 -2 -9 -5 -3 -10 -32 -27 -20 -10 -1 -6 -6 -3 -56 -30
-6 0 0 -2 0 -1 -2 -2 0 -1 0 0 0 0 0 0 0 -15 -60 -4 -3 0 0 0 0 0 -3 -13 0 -17 -13 -4 0 -21 -11 -2 -1 -18 -30 -34 -40 -21 -14 -13 -13 0 0
0 0 0 -3 -7 0 -4 -9 0 -1 0 0 0 0 -29 0 0 -16 -132 -140 0 0 0 0 0 0 0 -2 -9 0 -3 -4 -9 -11 -11 0 0 -12 -1 -16 0 -12 -15 -12 0 -8 0
0 0 0 -4 -1 -1 -4 -5 0 0 0 0 0 0 -25 -24 0 -3 -129 -126 -2 0 -15 0 0 0 -13 0 -5 0 0 0 -19 -7 -1 -2 0 -1 0 -4 -1 -17 -2 -3 -5 0 0
-1 0 0 -2 0 -1 -5 0 0 0 0 0 0 -19 -15 -20 0 -55 -95 -82 0 0 -31 0 0 0 0 -3 -7 -3 0 -76 -91 -23 -2 -7 0 0 -1 -18 -8 -7 0 0 0 0 0
0 0 -6 -3 -1 0 0 -1 0 0 0 -3 0 -56 -1 -81 0 -41 -33 0 0 -1 0 0 0 0 0 0 -6 -20 -14 -93 0 -59 0 -24 0 0 0 0 -2 -7 0 0 0 -27 0
0 -1 -2 -1 0 0 0 0 -30 0 0 -12 -11 0 0 0 -80 -77 -27 0 0 0 -1 -12 -1 -29 -37 -18 -22 0 0 -85 0 0 0 -32 -6 0 0 0 0 0 0 0 0 0 -12
0 0 0 0 0 0 -2 0 -7 0 0 -15 -18 -31 -25 -1 -32 0 -7 0 0 0 -12 -6 0 -16 0 0 0 0 -1 -11 -12 -17 -23 0 -2 0 0 0 0 0 0 0 0 0 0
0 0 0 0 0 0 0 0 0 0 0 -27 -20 -1 0 -1 0 0 -28 0 0 -6 -28 -5 -10 -1 0 -10 -16 -18 -12 -8 -3 -17 -17 -20 -14 0 0 0 0 0 0 0 0 0 0
0 0 0 0 0 0 0 0 -3 0 0 -6 -2 -2 0 0 0 0 0 0 -1 0 -6 -17 0 0 -88 -105 -82 -76 -67 -32 -34 -35 -35 -39 -22 0 0 0 0 0 0 0 0 0 0
0 0 0 0 0 0 0 0 0 0 0 -98 -24 -4 0 -20 0 0 -1 0 -2 -5 -9 -44 -152 -113 -109 -49 -45 -47 -75 0 0 0 0 0 0 0 0 0 0 0 0 0 0 0 0
0 0 0 -3 0 0 -5 0 0 0 0 0 -156 -28 0 -2 0 -1 -1 -1 0 -6 -48 0 -46 0 0 -39 -30 -6 0 -15 -15 -1 0 0 0 0 0 0 0 0 0 0 0 0 0
0 0 0 0 -1 0 0 0 0 0 0 0 -35 -112 -5 0 -8 -1 0 -1 0 0 -4 -146 0 -19 0 -46 -4 -1 0 -2 -4 -27 0 0 0 0 0 0 0 0 0 0 0 0 0
-7 -6 0 0 0 0 0 0 0 0 0 -1 -3 -86 -12 -10 -38 -39 -11 -1 -2 0 -11 -72 -92 -101 -81 -48 -8 -5 -10 -36 0 0 0 0 -17 0 -4 0 0 0 0 0 0 0 0
-4 0 0 0 0 0 0 0 0 0 0 0 0 -133 -82 -17 -62 -126 -212 -208 -159 -92 -4 -112 -13 -49 -32 -2 -17 -22 -32 0 -22 -8 0 0 0 -1 0 0 0 0 0 0 0 0 0
Wind_Speed
13 13 14 16 15 14 14 13 12 11 10 9 8 9 10 12 13 11 12 8 10 10 10 9 9 11 11 8 12 9 9 11 14 13 15 11 11 11 11 12 12 15 4 3 2 6 7
13 13 12 15 16 16 15 14 12 11 10 9 9 9 10 11 12 11 12 8 10 8 8 5 8 10 9 12 1 3 4 12 12 16 14 11 9 10 11 5 11 11 13 3 6 10 15
16 14 11 11 17 16 16 14 13 12 11 9 10 9 9 10 11 10 10 8 8 7 3 4 7 10 8 17 3 4 8 3 11 14 14 11 11 7 5 9 3 4 7 9 6 10 6
15 14 11 12 11 16 16 14 13 13 11 10 10 9 10 10 10 9 8 6 5 4 2 4 6 9 9 6 11 12 10 12 9 10 13 2 7 11 12 6 6 9 6 12 7 13 6
16 15 14 12 11 15 16 15 15 13 11 10 10 9 9 10 9 7 5 4 5 3 5 6 7 8 8 4 11 10 13 8 5 8 6 3 7 9 7 10 8 10 8 11 12 12 11
17 17 16 15 13 12 18 16 15 13 12 10 10 9 9 9 7 6 5 4 7 6 8 7 9 8 9 9 5 3 6 6 6 9 9 7 7 9 10 10 10 13 15 14 11 11 10
21 20 18 17 14 12 16 18 16 14 12 11 10 9 8 8 6 6 7 6 7 9 11 12 4 13 2 6 6 11 9 10 6 10 13 12 8 12 15 15 9 4 8 11 14 11 13
20 19 18 18 18 15 14 19 16 15 13 12 10 8 7 6 5 8 9 9 9 7 8 21 19 13 14 8 7 10 6 10 7 14 6 7 10 7 10 3 7 6 6 7 11 11 9
22 20 20 19 18 16 13 17 16 15 14 12 10 8 6 5 7 5 12 14 4 12 7 12 16 14 13 9 11 14 9 9 15 18 9 1 7 5 6 7 7 7 2 8 7 11 14
23 21 20 19 18 17 14 15 18 17 15 13 11 8 8 12 5 9 11 16 14 7 7 12 12 9 9 8 10 7 6 6 10 14 10 22 18 6 8 6 7 10 2 1 5 12 13
25 22 21 19 19 18 14 12 17 17 15 13 11 11 15 23 9 7 6 8 6 5 6 15 16 5 8 12 4 14 5 9 12 16 10 4 9 9 8 5 5 9 2 4 6 12 8
26 25 22 21 20 17 15 12 17 18 17 15 13 13 15 8 7 11 6 4 5 6 10 9 13 13 14 13 8 11 13 8 5 4 12 2 8 3 6 3 4 4 4 6 8 10 8
25 26 24 21 21 18 16 12 19 20 17 15 14 15 15 9 5 8 7 8 7 9 6 12 18 18 17 10 11 11 16 15 12 11 12 12 10 4 5 7 3 8 9 8 6 4 8
24 28 25 23 22 20 18 12 17 20 18 16 14 14 12 12 10 4 9 10 11 14 15 7 16 16 16 13 12 12 15 17 19 14 10 12 9 12 7 9 5 10 11 6 7 7 7
27 29 27 23 21 21 17 14 15 19 20 17 15 8 8 11 11 4 10 15 11 10 14 9 12 16 16 14 8 13 15 16 14 15 7 17 5 7 2 2 6 6 8 6 5 1 6
29 31 27 24 21 22 18 14 15 21 22 23 10 7 12 13 14 7 11 19 20 9 7 13 16 17 17 14 12 14 14 15 8 5 7 4 4 4 6 5 6 9 4 4 5 4 7
28 31 26 23 21 21 19 18 9 22 27 25 11 8 10 17 13 6 13 20 18 10 10 12 17 15 15 14 16 15 13 7 8 10 8 7 9 7 5 10 11 8 9 6 5 3 4
27 31 26 22 20 22 17 18 10 24 29 20 12 12 14 17 11 9 16 22 20 12 11 10 9 13 14 14 12 12 16 12 10 7 11 3 5 7 10 5 5 10 8 9 6 7 4
26 25 24 20 19 21 18 17 5 29 31 15 13 7 5 15 15 14 20 21 21 15 13 13 12 12 12 11 11 12 11 7 4 7 5 6 7 9 7 6 7 9 9 8 8 2 9
28 28 23 19 18 20 18 15 12 29 31 14 11 11 5 10 15 20 24 21 19 12 13 15 15 12 10 12 11 10 9 4 4 4 3 2 11 9 10 8 6 12 12 11 11 8 10
27 27 23 21 20 21 20 19 20 21 33 10 10 13 14 18 21 14 24 18 22 13 10 12 12 15 14 12 14 8 10 7 6 5 5 5 10 12 14 5 7 9 9 10 16 17 16
29 25 22 21 21 23 23 20 20 19 29 6 7 15 18 20 21 19 20 23 24 19 16 16 15 17 15 10 11 12 12 10 8 10 8 6 6 3 6 9 9 12 13 14 14 16 18
25 24 24 22 22 24 23 24 24 27 20 7 8 9 15 19 24 18 17 22 24 15 3 9 17 16 11 4 7 10 6 2 4 8 11 6 4 4 5 4 5 7 16 18 18 17 14
26 25 22 22 24 22 23 23 22 31 30 12 9 6 14 15 19 19 22 21 19 16 10 3 7 10 7 13 14 12 11 9 7 5 3 6 7 2 1 2 1 3 2 5 7 12 14
27 24 23 23 22 24 26 28 22 29 35 11 8 4 6 6 18 23 24 18 12 10 13 11 6 6 15 8 5 5 3 3 3 3 3 4 5 3 3 6 9 12 5 1 1 5 10
22 23 25 22 23 23 21 22 27 29 30 13 10 9 8 9 15 20 16 17 11 10 8 6 11 7 2 2 2 5 5 6 6 7 2 4 1 4 4 3 4 4 4 1 2 4 8
23 23 22 23 24 26 28 29 29 29 22 13 8 7 7 8 15 18 15 13 13 11 7 7 8 4 3 3 2 4 5 3 6 5 5 3 1 6 6 3 6 6 2 2 5 5 9
22 21 26 23 27 25 24 24 23 24 20 14 8 7 4 6 7 1 3 14 5 10 7 10 7 2 3 3 3 3 2 4 2 3 6 7 7 4 3 3 6 5 6 1 6 6 7
19 20 22 22 22 23 22 24 25 20 21 22 6 2 8 6 7 8 9 8 5 7 4 12 2 11 7 4 1 3 2 1 2 4 3 4 4 1 6 1 6 3 4 3 6 8 8
Wind_Direction
288 294 300 231 226 227 233 235 237 240 244 251 262 275 284 290 293 295 301 302 299 301 303 316 322 314 295 240 252 100 121 143 171 206 222 213 229 236 241 216 201 225 207 342 76 215 179
282 282 289 270 224 224 229 234 232 236 241 252 259 269 279 284 289 288 293 286 293 291 296 309 308 301 255 258 49 142 119 157 187 207 220 226 241 247 304 275 228 195 247 196 233 182 204
275 272 274 302 241 225 226 229 230 235 236 243 256 266 274 283 288 286 295 288 288 283 294 320 294 274 255 245 323 173 190 209 224 219 238 232 252 255 274 232 290 226 178 186 228 204 207
274 274 267 278 270 227 224 223 224 232 235 237 252 261 274 283 287 287 284 282 270 265 251 259 277 266 267 270 257 240 224 247 230 231 244 327 256 256 274 355 217 196 186 169 198 181 186
273 272 268 270 285 254 226 220 223 225 231 235 248 259 272 281 286 277 260 245 237 221 239 233 237 252 262 103 236 237 228 246 177 204 205 255 219 232 214 240 187 205 183 204 180 206 159
265 270 266 264 261 276 241 221 221 220 222 227 245 256 270 282 280 249 212 224 153 191 216 210 261 260 240 234 193 255 178 157 188 173 182 220 209 221 218 207 198 180 234 191 182 171 189
250 256 262 266 260 267 253 224 217 213 214 224 233 249 265 276 250 199 178 192 208 195 219 231 165 249 308 341 226 222 160 195 220 210 226 190 226 224 190 216 280 276 208 201 143 156 203
249 246 252 257 260 255 266 232 214 208 208 218 223 235 256 256 205 210 261 244 342 2 285 215 248 263 273 269 258 228 181 214 197 256 157 169 213 242 177 215 280 253 209 135 122 177 242
245 245 244 248 253 253 261 247 213 204 205 209 214 217 226 179 147 200 235 235 323 347 259 213 216 246 245 205 234 205 197 235 162 263 263 46 308 169 205 203 203 239 190 287 182 182 224
244 240 238 238 244 249 253 259 220 200 199 202 203 194 171 138 197 221 233 238 261 324 269 175 198 235 217 235 220 237 228 249 144 230 298 145 237 205 206 197 284 217 22 182 159 194 211
245 239 232 231 238 240 240 250 227 199 197 194 191 182 167 194 329 199 35 176 152 213 252 157 173 140 187 212 172 192 178 230 253 203 229 100 183 198 220 52 285 99 172 250 248 257 207
248 237 231 229 232 226 234 241 224 198 192 186 182 178 172 206 254 270 3 184 192 219 242 161 156 185 190 210 222 168 193 228 331 187 245 273 324 306 69 104 270 127 204 221 242 257 264
248 240 228 224 228 224 225 239 227 200 186 182 176 172 179 186 231 201 240 201 197 230 144 171 179 179 196 184 202 213 197 198 209 212 196 188 192 113 190 152 164 229 246 254 210 246 244
248 242 226 219 222 217 215 228 223 199 179 169 171 165 212 231 241 317 223 213 218 199 217 153 183 183 203 189 201 208 204 212 218 252 213 195 181 181 170 266 308 210 300 269 292 295 276
239 247 225 212 215 210 207 216 222 200 169 153 144 197 233 211 242 248 225 213 202 246 197 191 186 195 200 191 232 206 218 222 203 224 163 256 149 106 223 219 280 148 242 6 313 95 272
241 255 222 210 208 209 204 201 220 199 158 151 180 191 218 188 189 220 228 227 218 243 228 195 197 199 197 190 201 197 198 216 187 265 258 277 126 183 126 216 205 281 53 211 219 259 257
234 254 212 207 204 200 197 206 217 190 158 173 190 208 176 165 161 216 218 212 228 187 225 214 207 197 211 194 198 198 200 156 211 184 245 252 254 148 163 213 244 170 228 233 309 293 290
227 231 207 201 196 196 195 200 224 186 166 172 194 211 139 149 167 209 218 212 227 192 211 223 268 197 223 200 201 219 222 203 175 190 207 186 269 247 237 75 319 295 268 221 232 231 225
222 218 225 196 195 196 195 201 267 184 171 174 195 153 181 189 192 196 212 218 222 229 202 208 217 206 210 196 203 227 220 61 159 212 242 183 237 245 231 206 218 242 229 247 242 326 240
209 210 210 196 197 196 193 194 212 185 181 206 188 166 162 208 214 197 208 212 203 233 225 200 210 198 200 203 206 203 198 141 186 215 2 338 244 235 246 284 323 205 239 224 219 226 246
209 205 202 198 199 200 198 199 200 207 189 212 228 192 168 179 194 216 207 194 206 186 223 206 186 203 192 195 194 207 188 155 177 146 195 248 239 241 262 314 289 289 273 238 238 241 247
209 199 201 203 201 200 193 191 201 227 199 229 241 187 166 164 186 210 214 212 207 195 186 197 208 203 191 185 196 197 195 193 180 178 199 198 245 273 257 242 264 274 266 260 256 249 258
198 199 204 201 199 199 191 194 203 219 200 202 232 207 166 159 184 196 209 210 207 167 217 249 212 186 200 91 53 33 74 100 144 182 195 190 206 191 248 346 312 283 246 248 251 248 253
195 203 201 197 195 200 193 199 230 211 197 222 246 177 169 170 180 190 209 211 211 177 152 160 173 170 96 124 105 86 87 93 106 75 173 181 201 104 209 249 287 278 29 323 298 282 268
195 196 199 187 198 198 194 201 220 186 201 223 295 231 150 167 177 189 198 199 195 123 132 112 56 85 157 159 127 130 125 84 112 76 129 234 149 143 182 221 292 285 169 306 269 302 34
187 192 190 191 195 203 214 226 196 198 203 217 274 307 166 139 194 182 180 188 171 138 135 87 112 81 163 120 141 189 197 214 167 145 114 119 236 217 166 206 231 67 86 111 254 243 29
182 187 193 201 196 206 196 180 184 198 189 192 270 257 214 170 166 186 197 190 191 169 123 131 161 165 267 103 136 178 187 326 171 193 179 134 239 212 201 255 286 60 130 221 240 40 360
191 193 208 194 183 172 171 177 187 194 187 178 273 281 260 86 106 271 166 195 183 190 152 132 144 184 166 167 176 168 127 195 193 158 172 172 170 190 174 204 265 126 143 314 20 328 350
191 211 170 159 165 171 174 182 193 182 184 181 263 288 49 64 83 79 62 40 14 1 159 172 282 150 170 142 74 93 129 38 345 210 171 210 223 253 207 214 100 190 356 357 330 317 325